Eastsound, WA

12:44 PM PDT on May 26, 2018 (GMT -0700)
Orcas Island

Weather History for KORS - March, 2014

Change the Weather History Date:

Tuesday, March 11, 2014

  Actual Average (KFHR) Record (KFHR)
Temperature  
Mean Temperature 42 °F -  
Max Temperature 48 °F 47 °F 66 °F (2012)
Min Temperature 37 °F 36 °F 26 °F (2009)
Degree Days  
Heating Degree Days 22    
Moisture  
Dew Point 39 °F    
Average Humidity 86    
Maximum Humidity 100    
Minimum Humidity 71    
Precipitation  
Precipitation 0.00 in - - ()
Sea Level Pressure  
Sea Level Pressure 30.51 in    
Wind  
Wind Speed 3 mph (SW)    
Max Wind Speed 9 mph    
Max Gust Speed -    
Visibility 10 miles    
Events Rain    
Averages and records for this station are not official NWS values.
T = Trace of Precipitation, MM = Missing Value Source: NWS Daily Summary

Daily Weather History Graph

Daily Weather History Graph

Search for Another Location

Airport or City:

Astronomy

Mar. 11, 2014 Rise Set
Actual Time 7:32 AM PDT 7:11 PM PDT
Civil Twilight 7:01 AM PDT 7:42 PM PDT
Nautical Twilight 6:25 AM PDT 8:18 PM PDT
Astronomical Twilight 5:47 AM PDT 8:56 PM PDT
Moon 2:35 PM PDT (3/11) 4:48 AM PDT (3/11)
Length of Visible Light 12h 40m
Length of Day
11h 38m
Waxing Gibbous, 79% of the Moon is Illuminated
Mar 11
Waxing Gibbous
Mar 16
Full
Mar 23
Last Quarter
Mar 30
New
Apr 7
First Quarter

Hourly Weather History & Observations

Time (PDT) Temp. Windchill Dew Point Humidity Pressure Visibility Wind Dir Wind Speed Gust Speed Precip Events Conditions
12:15 AM 41.0 °F 37.1 °F 39.2 °F 93% 30.42 in 10.0 mi South 5.8 mph - N/A   Clear
12:35 AM 41.0 °F 39.0 °F 39.2 °F 93% 30.42 in 10.0 mi South 3.5 mph - N/A   Clear
12:55 AM 41.0 °F 38.0 °F 39.2 °F 93% 30.43 in 10.0 mi South 4.6 mph - N/A   Clear
1:15 AM 41.0 °F 39.0 °F 37.4 °F 87% 30.44 in 10.0 mi South 3.5 mph - N/A   Clear
1:35 AM 41.0 °F - 37.4 °F 87% 30.46 in 10.0 mi Calm Calm - N/A   Clear
1:55 AM 39.2 °F 35.9 °F 39.2 °F 100% 30.46 in 10.0 mi South 4.6 mph - N/A   Partly Cloudy
2:15 AM 39.2 °F - 37.4 °F 93% 30.47 in 10.0 mi North - - N/A   Scattered Clouds
2:35 AM 39.2 °F - 37.4 °F 93% 30.48 in 10.0 mi Calm Calm - N/A   Scattered Clouds
2:55 AM 39.2 °F - 37.4 °F 93% 30.48 in 10.0 mi Calm Calm - N/A   Partly Cloudy
3:15 AM 39.2 °F - 37.4 °F 93% 30.49 in 10.0 mi Calm Calm - N/A   Partly Cloudy
3:35 AM 39.2 °F - 39.2 °F 100% 30.49 in 10.0 mi Calm Calm - N/A   Partly Cloudy
3:55 AM 39.2 °F - 39.2 °F 100% 30.49 in 10.0 mi Calm Calm - N/A   Clear
4:15 AM 41.0 °F - 39.2 °F 93% 30.49 in 10.0 mi Calm Calm - N/A   Clear
4:35 AM 39.2 °F - 37.4 °F 93% 30.51 in 10.0 mi Calm Calm - N/A   Clear
4:55 AM 37.4 °F - 37.4 °F 100% 30.52 in 9.0 mi Calm Calm - N/A   Clear
5:15 AM 37.4 °F 33.8 °F 37.4 °F 100% 30.52 in 9.0 mi SSW 4.6 mph - N/A   Mostly Cloudy
5:35 AM 41.0 °F 38.0 °F 39.2 °F 93% 30.53 in 10.0 mi SSW 4.6 mph - N/A   Mostly Cloudy
5:55 AM 41.0 °F - 39.2 °F 93% 30.53 in 10.0 mi Calm Calm - N/A   Scattered Clouds
6:15 AM 41.0 °F 37.1 °F 39.2 °F 93% 30.54 in 10.0 mi South 5.8 mph - N/A   Clear
6:35 AM 41.0 °F 35.8 °F 39.2 °F 93% 30.54 in 10.0 mi South 8.1 mph - N/A   Mostly Cloudy
6:55 AM 41.0 °F 35.2 °F 41.0 °F 100% 30.54 in 10.0 mi South 9.2 mph - N/A   Scattered Clouds
7:15 AM 41.0 °F 36.4 °F 39.2 °F 93% 30.54 in 10.0 mi South 6.9 mph - N/A   Clear
7:35 AM 41.0 °F 37.1 °F 39.2 °F 93% 30.55 in 10.0 mi South 5.8 mph - N/A   Clear
7:55 AM 41.0 °F 37.1 °F 39.2 °F 93% 30.55 in 9.0 mi South 5.8 mph - N/A   Clear
8:15 AM 42.8 °F 38.0 °F 39.2 °F 87% 30.56 in 8.0 mi South 8.1 mph - N/A   Clear
8:35 AM 42.8 °F 41.1 °F 39.2 °F 87% 30.57 in 9.0 mi South 3.5 mph - N/A   Clear
8:55 AM 44.6 °F 41.4 °F 39.2 °F 81% 30.57 in 10.0 mi SSW 5.8 mph - N/A   Clear
9:15 AM 44.6 °F - 39.2 °F 81% 30.56 in 9.0 mi Calm Calm - N/A   Clear
9:35 AM 44.6 °F 42.2 °F 39.2 °F 81% 30.57 in 9.0 mi South 4.6 mph - N/A   Clear
9:55 AM 46.4 °F 42.9 °F 39.2 °F 76% 30.57 in 10.0 mi SSW 6.9 mph - N/A   Clear
10:15 AM 46.4 °F 42.9 °F 39.2 °F 76% 30.57 in 10.0 mi South 6.9 mph - N/A   Clear
10:35 AM 46.4 °F 42.9 °F 39.2 °F 76% 30.57 in 9.0 mi SSW 6.9 mph - N/A   Clear
10:55 AM 48.2 °F - 39.2 °F 71% 30.57 in 9.0 mi South 4.6 mph - N/A   Clear
11:15 AM 48.2 °F - 39.2 °F 71% 30.57 in 9.0 mi South 5.8 mph - N/A   Clear
11:35 AM 48.2 °F - 39.2 °F 71% 30.57 in 10.0 mi South 3.5 mph - N/A   Scattered Clouds
11:55 AM 48.2 °F - 41.0 °F 76% 30.58 in 10.0 mi North 3.5 mph - N/A   Partly Cloudy
12:15 PM 48.2 °F - 41.0 °F 76% 30.58 in 10.0 mi North 3.5 mph - N/A   Scattered Clouds
12:35 PM 46.4 °F 44.3 °F 41.0 °F 81% 30.57 in 10.0 mi NNE 4.6 mph - N/A   Clear
12:55 PM 46.4 °F 42.9 °F 41.0 °F 81% 30.57 in 9.0 mi NNW 6.9 mph - N/A   Clear
1:15 PM 46.4 °F 44.3 °F 41.0 °F 81% 30.56 in 10.0 mi NNW 4.6 mph - N/A   Partly Cloudy
1:35 PM 48.2 °F - 41.0 °F 76% 30.56 in 10.0 mi North 4.6 mph - N/A   Clear
1:55 PM 48.2 °F - 39.2 °F 71% 30.55 in 10.0 mi NNW 4.6 mph - N/A   Clear
2:15 PM 48.2 °F - 39.2 °F 71% 30.54 in 9.0 mi North 5.8 mph - N/A   Clear
2:35 PM 48.2 °F - 41.0 °F 76% 30.54 in 10.0 mi North 5.8 mph - N/A   Clear
2:55 PM 48.2 °F - 41.0 °F 76% 30.53 in 9.0 mi NNW 4.6 mph - N/A   Clear
3:15 PM 48.2 °F - 41.0 °F 76% 30.53 in 9.0 mi North 5.8 mph - N/A   Clear
3:35 PM 48.2 °F - 41.0 °F 76% 30.53 in 9.0 mi North 4.6 mph - N/A   Clear
3:55 PM 48.2 °F - 41.0 °F 76% 30.53 in 10.0 mi North 4.6 mph - N/A   Clear
4:15 PM 48.2 °F - 41.0 °F 76% 30.52 in 10.0 mi North 4.6 mph - N/A   Clear
4:35 PM 48.2 °F - 41.0 °F 76% 30.51 in 10.0 mi North 4.6 mph - N/A   Clear
4:55 PM 48.2 °F - 41.0 °F 76% 30.51 in 9.0 mi North 4.6 mph - N/A   Clear
5:15 PM 48.2 °F - 41.0 °F 76% 30.51 in 9.0 mi North 4.6 mph - N/A   Clear
5:35 PM 48.2 °F - 41.0 °F 76% 30.50 in 10.0 mi Calm Calm - N/A   Clear
5:55 PM 48.2 °F - 39.2 °F 71% 30.50 in 10.0 mi Calm Calm - N/A   Clear
6:15 PM 48.2 °F - 39.2 °F 71% 30.49 in 10.0 mi Calm Calm - N/A Rain Light Rain
6:35 PM 46.4 °F - 41.0 °F 81% 30.48 in 8.0 mi Calm Calm - N/A   Clear
6:55 PM 46.4 °F - 41.0 °F 81% 30.48 in 10.0 mi Calm Calm - N/A   Clear
7:15 PM 44.6 °F - 41.0 °F 87% 30.48 in 5.0 mi Calm Calm - N/A   Clear
7:35 PM 42.8 °F - 41.0 °F 93% 30.49 in 9.0 mi Calm Calm - N/A   Clear
7:55 PM 41.0 °F - 39.2 °F 93% 30.49 in 10.0 mi Calm Calm - N/A   Clear
8:15 PM 41.0 °F - 39.2 °F 93% 30.49 in 10.0 mi Calm Calm - N/A   Clear
8:35 PM 41.0 °F - 39.2 °F 93% 30.48 in 9.0 mi Calm Calm - N/A   Clear
8:55 PM 41.0 °F - 39.2 °F 93% 30.48 in 10.0 mi Calm Calm - N/A   Clear
9:15 PM 39.2 °F - 39.2 °F 100% 30.48 in 10.0 mi Calm Calm - N/A   Clear
9:35 PM 39.2 °F - 39.2 °F 100% 30.47 in 10.0 mi Calm Calm - N/A   Clear
9:55 PM 39.2 °F - 39.2 °F 100% 30.47 in 10.0 mi Calm Calm - N/A   Clear
10:15 PM 39.2 °F - 37.4 °F 93% 30.47 in 10.0 mi Calm Calm - N/A   Clear
10:35 PM 39.2 °F - 37.4 °F 93% 30.47 in 10.0 mi Calm Calm - N/A   Clear
10:55 PM 39.2 °F - 37.4 °F 93% 30.46 in 10.0 mi Calm Calm - N/A   Clear
11:15 PM 39.2 °F - 37.4 °F 93% 30.46 in 8.0 mi Calm Calm - N/A   Clear
11:35 PM 37.4 °F - 37.4 °F 100% 30.46 in 9.0 mi Calm Calm - N/A   Clear
11:55 PM 37.4 °F - 37.4 °F 100% 30.45 in 8.0 mi Calm Calm - N/A   Clear